Regional Weather Roundup
Issued by NWS Glasgow, MT

Home | Current Version | Previous Version | Text Only | Print | Product List | Glossary On
Versions: 1 2 3 4 5 6 7 8 9 10 11 12 13 14 15 16 17 18 19 20 21 22 23 24 25 26 27 28 29 30 31 32 33 34 35 36 37 38 39 40 41 42 43 44 45 46 47 48 49 50
000
ASUS45 KGGW 040615
RWRGGW
HOURLY REGIONAL WEATHER ROUNDUP FOR NORTHEAST MONTANA
NATIONAL WEATHER SERVICE GLASGOW MONTANA
1200 AM MDT TUE AUG 04 2015

NOTE: "FAIR" INDICATES FEW OR NO CLOUDS BELOW 12,000 FEET WITH NO
SIGNIFICANT WEATHER AND/OR OBSTRUCTIONS TO VISISBILITY.

NORTHEAST MONTANA


CITY           SKY/WX    TMP DP  RH WIND       PRES   REMARKS
GLASGOW        CLEAR     69  45  41 E15       29.89S
6HR MIN TEMP:  69; 6HR MAX TEMP:  87;

PLENTYWOOD       N/A     66  49  54 SE3         N/A
WOLF POINT     CLEAR     63  47  55 NE7       29.93S
JORDAN           N/A     71  47  42 E8        29.89S
WINNETT          N/A     78  45  30 E9G21       N/A
SIDNEY         PTCLDY   N/A N/A N/A N3        29.94S
GLENDIVE         N/A    N/A N/A N/A MISG        N/A
MALTA            N/A     73  47  39 SE5G21      N/A
SCOBEY           N/A     65  47  52 E9        29.95F

FORT PECK REPORTS


CITY           SKY/WX    TMP DP  RH WIND       PRES   REMARKS
FORT PECK        N/A     73  47  39 E22         N/A
THE PINES        N/A     73  46  38 E6          N/A

SOUTHEAST MONTANA


CITY           SKY/WX    TMP DP  RH WIND       PRES   REMARKS
BILLINGS       MOCLDY    77  46  33 SW12      29.89S
MILES CITY     PTCLDY    76  51  41 E8        29.89F
BAKER          MOCLDY    65  51  60 E7        29.97S
LIVINGSTON     MOCLDY    74  44  34 SW17      29.94R

CENTRAL MONTANA


CITY           SKY/WX    TMP DP  RH WIND       PRES   REMARKS
HAVRE          CLEAR     71  50  47 E16       29.78S
LEWISTOWN      MOCLDY    70  46  42 E7        29.91S
GREAT FALLS    MOCLDY    75  45  34 S12       29.82S
CUT BANK       CLOUDY    81  41  24 SW26G36   29.80F
HELENA         CLOUDY    81  41  24 SW8       29.88R
BUTTE          CLOUDY    69  42  37 CALM      30.05R
BOZEMAN        CLOUDY    70  52  52 NW16      29.97R

WESTERN MONTANA


CITY           SKY/WX    TMP DP  RH WIND       PRES   REMARKS
MISSOULA       CLOUDY    78  37  22 N10       29.89F
KALISPELL      NOT AVBL

NORTH DAKOTA


CITY           SKY/WX    TMP DP  RH WIND       PRES   REMARKS
WILLISTON      CLEAR     66  51  58 E6        29.97S
DICKINSON      PTCLDY    57  49  74 E9        29.98S
MINOT          CLEAR     60  49  66 CALM      29.97S
BISMARCK       CLEAR     55  51  86 E3        29.99R

SOUTHERN SASKATCHEWAN


CITY           SKY/WX    TMP DP  RH WIND       PRES   REMARKS
REGINA         PTCLDY    63  52  67 E10       29.98S
ESTEVAN        CLEAR     55  48  76 E6        29.99S
SWIFT CURRENT  CLEAR     63  55  77 SE12      29.92S




USA.gov is the U.S. government's official web portal to all federal, state and local government web resources and services.